SDE755 KSDL-CYYJ

Flight info

Callsign SDE755
Flight time 2h 29m
Altitude 43000
Route SNOBL6 GCN DCT WINEN DCT ELY DCT DERMT J523 REO DCT SEA DCT DISCO DISCO5
Aircraft C750/M-SBDE3FGHRWXY/S

Departure

Time 2026-04-29 18:24
Airport Scottsdale Airport (KSDL)

Arrival

Time 2026-04-29 20:53
Airport Victoria International Airport (CYYJ)
Time Latitude Longitude Altitude Speed Heading
2026-04-29 17:28 33.62018 -111.91650 1498 ft 0 kts 317°
2026-04-29 18:17 33.62026 -111.91658 1497 ft 5 kts 327°
2026-04-29 18:17 33.62061 -111.91631 1497 ft 7 kts 45°
2026-04-29 18:17 33.62073 -111.91580 1498 ft 6 kts 118°
2026-04-29 18:18 33.62051 -111.91550 1500 ft 4 kts 133°
2026-04-29 18:18 33.62026 -111.91519 1503 ft 6 kts 133°
2026-04-29 18:18 33.62027 -111.91469 1503 ft 9 kts 44°
2026-04-29 18:18 33.62089 -111.91401 1501 ft 15 kts 44°
2026-04-29 18:19 33.62165 -111.91311 1502 ft 14 kts 45°
2026-04-29 18:19 33.62231 -111.91235 1502 ft 12 kts 44°
2026-04-29 18:19 33.62287 -111.91170 1502 ft 11 kts 44°
2026-04-29 18:19 33.62344 -111.91105 1503 ft 11 kts 44°
2026-04-29 18:20 33.62398 -111.91042 1505 ft 11 kts 44°
2026-04-29 18:20 33.62454 -111.90978 1506 ft 12 kts 44°
2026-04-29 18:20 33.62518 -111.90903 1506 ft 14 kts 44°
2026-04-29 18:20 33.62592 -111.90818 1507 ft 15 kts 44°
2026-04-29 18:21 33.62674 -111.90723 1505 ft 18 kts 44°
2026-04-29 18:21 33.62764 -111.90619 1503 ft 18 kts 44°
2026-04-29 18:21 33.62847 -111.90524 1503 ft 16 kts 44°
2026-04-29 18:21 33.62924 -111.90435 1501 ft 15 kts 44°
2026-04-29 18:22 33.62996 -111.90353 1502 ft 13 kts 43°
2026-04-29 18:22 33.63051 -111.90289 1503 ft 10 kts 44°
2026-04-29 18:22 33.63106 -111.90226 1503 ft 12 kts 44°
2026-04-29 18:22 33.63141 -111.90172 1504 ft 7 kts 82°
2026-04-29 18:23 33.63111 -111.90133 1504 ft 7 kts 157°
2026-04-29 18:23 33.63064 -111.90158 1504 ft 10 kts 226°
2026-04-29 18:23 33.62838 -111.90420 1503 ft 94 kts 224°
2026-04-29 18:23 33.62197 -111.91157 1572 ft 147 kts 223°
2026-04-29 18:24 33.61465 -111.92027 2210 ft 151 kts 230°
2026-04-29 18:24 33.61103 -111.93228 2680 ft 166 kts 272°
2026-04-29 18:24 33.61390 -111.94086 2970 ft 173 kts 307°
2026-04-29 18:24 33.62462 -111.94825 3398 ft 188 kts 341°
2026-04-29 18:25 33.63744 -111.95215 3957 ft 199 kts 344°
2026-04-29 18:25 33.65182 -111.95644 4350 ft 227 kts 345°
2026-04-29 18:25 33.66805 -111.96133 4751 ft 253 kts 345°
2026-04-29 18:25 33.68602 -111.96626 5134 ft 276 kts 352°
2026-04-29 18:26 33.70522 -111.96620 6078 ft 274 kts
2026-04-29 18:26 33.72428 -111.96449 6927 ft 277 kts
2026-04-29 18:26 33.74368 -111.96278 7712 ft 283 kts
2026-04-29 18:26 33.76346 -111.96130 8562 ft 285 kts
2026-04-29 18:27 33.78341 -111.95980 9458 ft 289 kts
2026-04-29 18:27 33.80368 -111.95820 10188 ft 296 kts
2026-04-29 18:27 33.82511 -111.95654 10334 ft 322 kts
2026-04-29 18:27 33.84845 -111.95475 10359 ft 350 kts
2026-04-29 18:28 33.87313 -111.95276 10864 ft 356 kts
2026-04-29 18:28 33.89795 -111.95074 11543 ft 359 kts
2026-04-29 18:28 33.92299 -111.94872 12091 ft 363 kts
2026-04-29 18:28 33.94833 -111.94671 12719 ft 367 kts 360°
2026-04-29 18:29 33.97375 -111.94490 13313 ft 371 kts 359°
2026-04-29 18:29 33.99962 -111.94288 13927 ft 374 kts 360°
2026-04-29 18:29 34.02577 -111.94073 14449 ft 378 kts 359°
2026-04-29 18:29 34.05214 -111.93863 15031 ft 381 kts 359°
2026-04-29 18:30 34.07870 -111.93660 15591 ft 384 kts 359°
2026-04-29 18:30 34.10540 -111.93680 16050 ft 384 kts 350°
2026-04-29 18:30 34.13200 -111.93995 16678 ft 385 kts 348°
2026-04-29 18:30 34.15874 -111.94321 17236 ft 389 kts 349°
2026-04-29 18:31 34.18577 -111.94602 17843 ft 391 kts 349°
2026-04-29 18:31 34.21301 -111.94897 18448 ft 395 kts 349°
2026-04-29 18:31 34.24049 -111.95209 19043 ft 398 kts 348°
2026-04-29 18:31 34.26815 -111.95518 19573 ft 402 kts 348°
2026-04-29 18:32 34.29620 -111.95824 20076 ft 407 kts 348°
2026-04-29 18:32 34.35319 -111.96445 21121 ft 416 kts 348°
2026-04-29 18:32 34.38211 -111.96773 21670 ft 419 kts 347°
2026-04-29 18:33 34.41137 -111.97105 22193 ft 425 kts 347°
2026-04-29 18:33 34.44094 -111.97427 22725 ft 430 kts 347°
2026-04-29 18:33 34.47087 -111.97752 23294 ft 433 kts 347°
2026-04-29 18:33 34.50097 -111.98083 23824 ft 436 kts 347°
2026-04-29 18:34 34.53132 -111.98423 24294 ft 439 kts 346°
2026-04-29 18:34 34.55150 -111.98647 24609 ft 441 kts 346°
2026-04-29 18:34 34.59220 -111.99094 25206 ft 446 kts 346°
2026-04-29 18:34 34.62315 -111.99437 25723 ft 447 kts 345°
2026-04-29 18:35 34.65420 -111.99783 26206 ft 450 kts 345°
2026-04-29 18:35 34.68548 -112.00132 26636 ft 453 kts 345°
2026-04-29 18:35 34.71698 -112.00479 27175 ft 455 kts 345°
2026-04-29 18:35 34.74861 -112.00829 27647 ft 458 kts 344°
2026-04-29 18:36 34.78044 -112.01185 28100 ft 461 kts 344°
2026-04-29 18:36 34.81250 -112.01546 28560 ft 464 kts 343°
2026-04-29 18:36 34.84482 -112.01911 29021 ft 467 kts 343°
2026-04-29 18:36 34.87733 -112.02277 29456 ft 471 kts 343°
2026-04-29 18:37 34.91004 -112.02648 29860 ft 474 kts 343°
2026-04-29 18:37 34.94298 -112.03023 30282 ft 477 kts 343°
2026-04-29 18:37 34.97617 -112.03392 30623 ft 480 kts 343°
2026-04-29 18:37 35.00941 -112.03764 30982 ft 481 kts 343°
2026-04-29 18:38 35.04273 -112.04139 31430 ft 480 kts 343°
2026-04-29 18:38 35.07595 -112.04510 31952 ft 479 kts 342°
2026-04-29 18:38 35.10902 -112.04888 32461 ft 477 kts 342°
2026-04-29 18:38 35.14207 -112.05267 32991 ft 475 kts 342°
2026-04-29 18:39 35.17501 -112.05638 33640 ft 475 kts 341°
2026-04-29 18:39 35.20744 -112.06005 34153 ft 474 kts 341°
2026-04-29 18:39 35.24021 -112.06376 34656 ft 472 kts 341°
2026-04-29 18:39 35.27280 -112.06747 35135 ft 470 kts 341°
2026-04-29 18:40 35.30532 -112.07119 35596 ft 469 kts 341°
2026-04-29 18:40 35.33780 -112.07489 36081 ft 468 kts 341°
2026-04-29 18:40 35.37015 -112.07856 36572 ft 466 kts 341°
2026-04-29 18:40 35.40254 -112.08192 37114 ft 466 kts 341°
2026-04-29 18:41 35.49869 -112.09122 38693 ft 459 kts 341°
2026-04-29 18:41 35.53045 -112.09451 39116 ft 458 kts 341°
2026-04-29 18:42 35.56220 -112.09784 39496 ft 456 kts 341°
2026-04-29 18:42 35.59369 -112.10180 39831 ft 454 kts 341°
2026-04-29 18:42 35.62511 -112.10589 40247 ft 454 kts 341°
2026-04-29 18:42 35.65657 -112.10961 40654 ft 454 kts 342°
2026-04-29 18:43 35.68803 -112.11317 41040 ft 454 kts 342°
2026-04-29 18:43 35.71946 -112.11694 41416 ft 453 kts 342°
2026-04-29 18:43 35.75078 -112.12083 41798 ft 453 kts 343°
2026-04-29 18:43 35.78221 -112.12463 42172 ft 452 kts 343°
2026-04-29 18:44 35.81365 -112.12835 42530 ft 452 kts 343°
2026-04-29 18:44 35.84466 -112.13205 42865 ft 452 kts 344°
2026-04-29 18:44 35.87606 -112.13590 43132 ft 457 kts 344°
2026-04-29 18:44 35.90795 -112.13983 43149 ft 464 kts 344°
2026-04-29 18:45 35.97061 -112.15651 43151 ft 458 kts 330°
2026-04-29 18:45 36.02742 -112.19090 43163 ft 456 kts 322°
2026-04-29 18:46 36.08329 -112.22801 43032 ft 457 kts 322°
2026-04-29 18:46 36.13850 -112.26512 43091 ft 454 kts 322°
2026-04-29 18:47 36.19436 -112.30238 43058 ft 456 kts 323°
2026-04-29 18:47 36.25012 -112.34001 43015 ft 457 kts 323°
2026-04-29 18:48 36.30608 -112.37746 43012 ft 457 kts 323°
2026-04-29 18:48 36.36157 -112.41498 43018 ft 457 kts 323°
2026-04-29 18:49 36.41749 -112.45260 43007 ft 458 kts 323°
2026-04-29 18:49 36.47316 -112.49030 43042 ft 457 kts 323°
2026-04-29 18:50 36.52933 -112.52831 43006 ft 461 kts 323°
2026-04-29 18:50 36.58561 -112.56644 43014 ft 460 kts 323°
2026-04-29 18:51 36.64184 -112.60465 43004 ft 460 kts 323°
2026-04-29 18:51 36.69682 -112.64206 42990 ft 463 kts 323°
2026-04-29 18:52 36.71924 -112.65732 42998 ft 462 kts 323°
2026-04-29 18:52 36.77582 -112.69592 43024 ft 464 kts 323°
2026-04-29 18:53 36.83250 -112.73461 43036 ft 464 kts 323°
2026-04-29 18:53 36.88908 -112.77335 43071 ft 466 kts 324°
2026-04-29 18:54 36.94554 -112.81202 43082 ft 465 kts 324°
2026-04-29 18:54 37.00225 -112.85097 43093 ft 465 kts 324°
2026-04-29 18:55 37.05911 -112.89009 43104 ft 467 kts 324°
2026-04-29 18:55 37.11601 -112.92926 43080 ft 467 kts 324°
2026-04-29 18:56 37.17300 -112.96860 43051 ft 468 kts 324°
2026-04-29 18:56 37.23009 -113.00809 43048 ft 468 kts 324°
2026-04-29 18:57 37.28709 -113.04752 43001 ft 469 kts 324°
2026-04-29 18:57 37.34426 -113.08723 43017 ft 469 kts 325°
2026-04-29 18:58 37.40137 -113.12686 43032 ft 468 kts 324°
2026-04-29 18:58 37.45837 -113.16661 43102 ft 469 kts 325°
2026-04-29 18:59 37.51569 -113.20654 43095 ft 471 kts 325°
2026-04-29 18:59 37.57293 -113.24655 43100 ft 471 kts 325°
2026-04-29 19:00 37.63022 -113.28663 43101 ft 470 kts 325°
2026-04-29 19:00 37.68705 -113.32649 43104 ft 472 kts 325°
2026-04-29 19:01 37.74434 -113.36672 43088 ft 471 kts 325°
2026-04-29 19:01 37.80160 -113.40702 43066 ft 471 kts 325°
2026-04-29 19:02 37.84955 -113.44081 43053 ft 471 kts 326°
2026-04-29 19:02 37.91611 -113.48779 43009 ft 470 kts 326°
2026-04-29 19:03 37.96918 -113.53469 43036 ft 465 kts 317°
2026-04-29 19:03 38.02076 -113.58432 43032 ft 465 kts 318°
2026-04-29 19:04 38.07214 -113.63412 43039 ft 464 kts 317°
2026-04-29 19:04 38.12344 -113.68385 43039 ft 464 kts 318°
2026-04-29 19:05 38.17473 -113.73366 43030 ft 464 kts 318°
2026-04-29 19:05 38.22599 -113.78355 43044 ft 463 kts 318°
2026-04-29 19:06 38.27721 -113.83348 43040 ft 465 kts 318°
2026-04-29 19:07 38.35408 -113.90858 43049 ft 464 kts 318°
2026-04-29 19:07 38.40525 -113.95871 43053 ft 464 kts 318°
2026-04-29 19:08 38.45637 -114.00884 43056 ft 463 kts 317°
2026-04-29 19:08 38.50743 -114.05905 43057 ft 463 kts 317°
2026-04-29 19:09 38.55845 -114.10928 43048 ft 463 kts 317°
2026-04-29 19:09 38.60948 -114.15963 43055 ft 463 kts 317°
2026-04-29 19:10 38.66045 -114.21001 43055 ft 463 kts 317°
2026-04-29 19:10 38.71161 -114.26067 43059 ft 465 kts 317°
2026-04-29 19:11 38.76285 -114.31151 43059 ft 467 kts 317°
2026-04-29 19:11 38.81413 -114.36246 43056 ft 466 kts 317°
2026-04-29 19:12 38.86529 -114.41342 43049 ft 465 kts 317°
2026-04-29 19:12 38.90776 -114.45577 43069 ft 465 kts 317°
2026-04-29 19:13 38.95903 -114.50700 43059 ft 467 kts 318°
2026-04-29 19:13 39.01022 -114.55825 43055 ft 466 kts 317°
2026-04-29 19:14 39.06141 -114.60959 43082 ft 467 kts 317°
2026-04-29 19:14 39.11276 -114.66120 43107 ft 469 kts 317°
2026-04-29 19:15 39.16377 -114.71254 43117 ft 468 kts 317°
2026-04-29 19:15 39.21500 -114.76423 43142 ft 468 kts 318°
2026-04-29 19:16 39.26628 -114.81604 43159 ft 469 kts 318°
2026-04-29 19:16 39.31879 -114.86631 43148 ft 471 kts 322°
2026-04-29 19:17 39.37341 -114.91321 43156 ft 472 kts 322°
2026-04-29 19:17 39.42789 -114.96059 43084 ft 472 kts 322°
2026-04-29 19:18 39.48254 -115.00787 43063 ft 472 kts 322°
2026-04-29 19:18 39.53703 -115.05532 43084 ft 472 kts 322°
2026-04-29 19:19 39.59151 -115.10273 43055 ft 472 kts 322°
2026-04-29 19:19 39.64605 -115.15035 43067 ft 472 kts 322°
2026-04-29 19:20 39.70054 -115.19798 43068 ft 472 kts 322°
2026-04-29 19:20 39.75504 -115.24573 43068 ft 472 kts 322°
2026-04-29 19:21 39.80957 -115.29360 43065 ft 473 kts 322°
2026-04-29 19:21 39.86406 -115.34151 43068 ft 473 kts 323°
2026-04-29 19:22 39.91812 -115.38915 43070 ft 472 kts 322°
2026-04-29 19:22 39.97256 -115.43722 43079 ft 473 kts 322°
2026-04-29 19:23 40.02700 -115.48537 43074 ft 473 kts 322°
2026-04-29 19:23 40.08141 -115.53361 43068 ft 472 kts 322°
2026-04-29 19:24 40.13574 -115.58183 43081 ft 473 kts 323°
2026-04-29 19:24 40.19007 -115.63022 43078 ft 472 kts 323°
2026-04-29 19:25 40.24431 -115.67854 43067 ft 471 kts 323°
2026-04-29 19:25 40.29851 -115.72699 43081 ft 472 kts 323°
2026-04-29 19:26 40.35268 -115.77547 43075 ft 471 kts 323°
2026-04-29 19:26 40.40669 -115.82392 43078 ft 471 kts 323°
2026-04-29 19:27 40.46048 -115.87226 43083 ft 472 kts 323°
2026-04-29 19:27 40.51456 -115.92095 43084 ft 471 kts 323°
2026-04-29 19:28 40.56857 -115.96968 43076 ft 470 kts 323°
2026-04-29 19:28 40.62244 -116.01839 43079 ft 470 kts 323°
2026-04-29 19:29 40.67628 -116.06716 43078 ft 470 kts 323°
2026-04-29 19:29 40.73016 -116.11606 43086 ft 470 kts 323°
2026-04-29 19:30 40.78403 -116.16507 43096 ft 472 kts 323°
2026-04-29 19:30 40.83802 -116.21426 43103 ft 472 kts 323°
2026-04-29 19:31 40.89199 -116.26355 43078 ft 471 kts 323°
2026-04-29 19:31 40.94587 -116.31284 43099 ft 470 kts 323°
2026-04-29 19:32 40.99964 -116.36215 43093 ft 470 kts 323°
2026-04-29 19:32 41.05340 -116.41154 43090 ft 470 kts 323°
2026-04-29 19:33 41.10683 -116.46073 43096 ft 471 kts 323°
2026-04-29 19:33 41.16060 -116.51033 43095 ft 471 kts 323°
2026-04-29 19:34 41.21446 -116.56011 43102 ft 472 kts 323°
2026-04-29 19:34 41.26803 -116.60972 43097 ft 469 kts 323°
2026-04-29 19:35 41.32154 -116.65939 43090 ft 469 kts 323°
2026-04-29 19:35 41.37506 -116.70916 43093 ft 469 kts 323°
2026-04-29 19:36 41.42859 -116.75905 43095 ft 470 kts 324°
2026-04-29 19:36 41.48210 -116.80902 43097 ft 469 kts 324°
2026-04-29 19:37 41.53562 -116.85910 43096 ft 470 kts 324°
2026-04-29 19:37 41.58895 -116.90909 43090 ft 467 kts 324°
2026-04-29 19:38 41.64212 -116.95907 43093 ft 468 kts 324°
2026-04-29 19:38 41.69540 -117.00923 43103 ft 468 kts 324°
2026-04-29 19:39 41.74863 -117.05946 43101 ft 468 kts 324°
2026-04-29 19:39 41.80149 -117.10943 43104 ft 468 kts 324°
2026-04-29 19:40 41.85467 -117.15981 43112 ft 468 kts 324°
2026-04-29 19:40 41.90774 -117.21020 43115 ft 467 kts 324°
2026-04-29 19:41 41.96074 -117.26064 43107 ft 467 kts 324°
2026-04-29 19:41 42.01368 -117.31112 43103 ft 466 kts 324°
2026-04-29 19:42 42.06656 -117.36165 43106 ft 466 kts 324°
2026-04-29 19:42 42.11940 -117.41224 43100 ft 466 kts 324°
2026-04-29 19:43 42.17223 -117.46293 43093 ft 466 kts 324°
2026-04-29 19:43 42.22497 -117.51365 43095 ft 466 kts 324°
2026-04-29 19:44 42.27771 -117.56447 43095 ft 466 kts 324°
2026-04-29 19:44 42.33010 -117.61505 43094 ft 466 kts 324°
2026-04-29 19:45 42.38288 -117.66612 43100 ft 467 kts 324°
2026-04-29 19:45 42.43566 -117.71731 43102 ft 466 kts 324°
2026-04-29 19:46 42.48835 -117.76850 43110 ft 465 kts 324°
2026-04-29 19:46 42.54082 -117.81959 43127 ft 464 kts 324°
2026-04-29 19:47 42.59336 -117.87045 43104 ft 464 kts 327°
2026-04-29 19:47 42.64858 -117.91616 43126 ft 464 kts 328°
2026-04-29 19:48 42.70349 -117.96201 43115 ft 463 kts 328°
2026-04-29 19:48 42.75843 -118.00771 43117 ft 463 kts 328°
2026-04-29 19:49 42.81344 -118.05369 43099 ft 463 kts 328°
2026-04-29 19:49 42.86814 -118.09945 43106 ft 461 kts 328°
2026-04-29 19:50 42.92292 -118.14541 43091 ft 464 kts 328°
2026-04-29 19:50 42.97752 -118.19130 43099 ft 464 kts 328°
2026-04-29 19:51 43.03235 -118.23748 43104 ft 463 kts 328°
2026-04-29 19:51 43.08723 -118.28380 43088 ft 466 kts 328°
2026-04-29 19:52 43.14234 -118.33041 43100 ft 465 kts 328°
2026-04-29 19:52 43.19740 -118.37709 43100 ft 465 kts 328°
2026-04-29 19:53 43.25243 -118.42383 43098 ft 465 kts 328°
2026-04-29 19:53 43.30744 -118.47068 43098 ft 464 kts 328°
2026-04-29 19:54 43.38977 -118.54094 43100 ft 465 kts 328°
2026-04-29 19:54 43.44468 -118.58795 43109 ft 465 kts 328°
2026-04-29 19:55 43.49940 -118.63488 43122 ft 462 kts 328°
2026-04-29 19:55 43.55394 -118.68177 43126 ft 462 kts 328°
2026-04-29 19:56 43.60856 -118.72882 43107 ft 463 kts 328°
2026-04-29 19:56 43.66309 -118.77591 43107 ft 461 kts 328°
2026-04-29 19:57 43.70821 -118.81494 43101 ft 460 kts 328°
2026-04-29 19:57 43.77163 -118.86993 43106 ft 460 kts 328°
2026-04-29 19:58 43.82585 -118.91704 43111 ft 460 kts 328°
2026-04-29 19:58 43.87998 -118.96418 43110 ft 459 kts 328°
2026-04-29 19:59 43.93375 -119.01112 43116 ft 460 kts 328°
2026-04-29 19:59 43.98782 -119.05840 43113 ft 458 kts 328°
2026-04-29 20:00 44.04170 -119.10564 43113 ft 458 kts 328°
2026-04-29 20:00 44.09555 -119.15294 43121 ft 458 kts 328°
2026-04-29 20:01 44.14945 -119.20040 43123 ft 458 kts 328°
2026-04-29 20:01 44.20325 -119.24787 43117 ft 457 kts 328°
2026-04-29 20:02 44.25701 -119.29541 43112 ft 458 kts 328°
2026-04-29 20:02 44.29295 -119.32725 43112 ft 457 kts 328°
2026-04-29 20:03 44.36437 -119.39066 43122 ft 456 kts 328°
2026-04-29 20:03 44.41801 -119.43841 43123 ft 457 kts 328°
2026-04-29 20:04 44.46256 -119.47815 43133 ft 457 kts 328°
2026-04-29 20:04 44.51605 -119.52596 43138 ft 455 kts 328°
2026-04-29 20:05 44.56942 -119.57376 43134 ft 455 kts 328°
2026-04-29 20:05 44.62280 -119.62167 43140 ft 455 kts 328°
2026-04-29 20:06 44.67609 -119.66962 43144 ft 455 kts 327°
2026-04-29 20:06 44.72933 -119.71764 43144 ft 454 kts 327°
2026-04-29 20:07 44.78249 -119.76567 43142 ft 454 kts 327°
2026-04-29 20:07 44.83569 -119.81386 43148 ft 454 kts 327°
2026-04-29 20:08 44.88002 -119.85409 43164 ft 458 kts 327°
2026-04-29 20:08 44.94250 -119.91092 43166 ft 457 kts 327°
2026-04-29 20:09 44.99557 -119.95930 43162 ft 457 kts 327°
2026-04-29 20:09 45.04922 -120.00834 43164 ft 456 kts 327°
2026-04-29 20:10 45.10244 -120.05707 43168 ft 456 kts 327°
2026-04-29 20:10 45.15553 -120.10582 43181 ft 458 kts 327°
2026-04-29 20:11 45.20895 -120.15496 43197 ft 457 kts 327°
2026-04-29 20:11 45.26239 -120.20425 43194 ft 458 kts 327°
2026-04-29 20:12 45.31577 -120.25359 43203 ft 458 kts 327°
2026-04-29 20:12 45.36909 -120.30299 43197 ft 456 kts 327°
2026-04-29 20:13 45.42218 -120.35227 43187 ft 456 kts 327°
2026-04-29 20:13 45.47530 -120.40170 43187 ft 456 kts 327°
2026-04-29 20:14 45.52839 -120.45123 43184 ft 456 kts 327°
2026-04-29 20:14 45.58139 -120.50078 43185 ft 455 kts 326°
2026-04-29 20:15 45.63436 -120.55041 43188 ft 455 kts 326°
2026-04-29 20:15 45.68698 -120.59983 43185 ft 455 kts 326°
2026-04-29 20:16 45.73995 -120.64969 43190 ft 455 kts 326°
2026-04-29 20:16 45.79277 -120.69953 43187 ft 455 kts 326°
2026-04-29 20:17 45.84563 -120.74952 43192 ft 455 kts 326°
2026-04-29 20:17 45.89848 -120.79961 43181 ft 454 kts 326°
2026-04-29 20:18 45.95113 -120.84964 43183 ft 454 kts 326°
2026-04-29 20:18 46.00381 -120.89981 43182 ft 454 kts 326°
2026-04-29 20:19 46.05649 -120.95009 43178 ft 454 kts 326°
2026-04-29 20:19 46.10918 -121.00049 43181 ft 455 kts 326°
2026-04-29 20:20 46.16186 -121.05102 43177 ft 455 kts 326°
2026-04-29 20:20 46.21447 -121.10158 43188 ft 455 kts 326°
2026-04-29 20:21 46.26714 -121.15233 43179 ft 456 kts 326°
2026-04-29 20:21 46.31990 -121.20327 43177 ft 455 kts 326°
2026-04-29 20:22 46.37225 -121.25395 43168 ft 455 kts 326°
2026-04-29 20:22 46.42491 -121.30505 43159 ft 456 kts 326°
2026-04-29 20:23 46.47770 -121.35638 43173 ft 458 kts 326°
2026-04-29 20:23 46.53051 -121.40787 43173 ft 457 kts 326°
2026-04-29 20:24 46.58326 -121.45943 43163 ft 457 kts 327°
2026-04-29 20:24 46.63606 -121.51113 43162 ft 457 kts 326°
2026-04-29 20:25 46.68873 -121.56284 43161 ft 457 kts 326°
2026-04-29 20:25 46.74129 -121.61459 43157 ft 456 kts 326°
2026-04-29 20:26 46.76744 -121.64034 42896 ft 449 kts 326°
2026-04-29 20:26 46.79298 -121.66556 42314 ft 437 kts 326°
2026-04-29 20:26 46.81779 -121.69008 41730 ft 425 kts 326°
2026-04-29 20:26 46.84192 -121.71400 41179 ft 413 kts 326°
2026-04-29 20:27 46.86539 -121.73723 40648 ft 402 kts 326°
2026-04-29 20:27 46.88058 -121.75228 40298 ft 396 kts 326°
2026-04-29 20:27 46.91056 -121.78206 39613 ft 382 kts 327°
2026-04-29 20:27 46.93230 -121.80360 39130 ft 374 kts 326°
2026-04-29 20:28 46.95368 -121.82485 38581 ft 369 kts 326°
2026-04-29 20:28 46.97478 -121.84578 38089 ft 366 kts 326°
2026-04-29 20:28 46.99599 -121.86703 37618 ft 374 kts 326°
2026-04-29 20:28 47.01763 -121.88876 37150 ft 380 kts 327°
2026-04-29 20:29 47.03969 -121.91073 36641 ft 386 kts 327°
2026-04-29 20:29 47.06193 -121.93289 36139 ft 388 kts 327°
2026-04-29 20:29 47.08428 -121.95523 35632 ft 389 kts 327°
2026-04-29 20:29 47.10670 -121.97768 35121 ft 390 kts 327°
2026-04-29 20:30 47.12888 -121.99993 34599 ft 391 kts 327°
2026-04-29 20:30 47.15142 -122.02257 34069 ft 393 kts 327°
2026-04-29 20:30 47.17403 -122.04529 33555 ft 394 kts 327°
2026-04-29 20:30 47.19671 -122.06809 33037 ft 397 kts 327°
2026-04-29 20:31 47.21961 -122.09113 32520 ft 401 kts 328°
2026-04-29 20:31 47.24272 -122.11443 31986 ft 403 kts 328°
2026-04-29 20:31 47.26590 -122.13782 31456 ft 406 kts 328°
2026-04-29 20:31 47.28928 -122.16144 30920 ft 409 kts 328°
2026-04-29 20:32 47.31279 -122.18521 30375 ft 410 kts 328°
2026-04-29 20:32 47.33628 -122.20901 29799 ft 407 kts 328°
2026-04-29 20:32 47.35949 -122.23252 29268 ft 404 kts 328°
2026-04-29 20:32 47.37486 -122.24811 28916 ft 404 kts 328°
2026-04-29 20:33 47.40351 -122.27719 28263 ft 402 kts 328°
2026-04-29 20:33 47.42651 -122.30057 27731 ft 401 kts 328°
2026-04-29 20:33 47.45004 -122.32274 27197 ft 399 kts 331°
2026-04-29 20:33 47.47391 -122.34356 26679 ft 399 kts 331°
2026-04-29 20:34 47.49760 -122.36446 26142 ft 398 kts 331°
2026-04-29 20:34 47.52137 -122.38566 25615 ft 398 kts 331°
2026-04-29 20:34 47.54497 -122.40666 25097 ft 394 kts 331°
2026-04-29 20:34 47.56849 -122.42746 24579 ft 394 kts 331°
2026-04-29 20:35 47.59196 -122.44827 24063 ft 393 kts 331°
2026-04-29 20:35 47.61539 -122.46914 23505 ft 392 kts 330°
2026-04-29 20:35 47.63862 -122.48985 22994 ft 389 kts 331°
2026-04-29 20:35 47.66180 -122.51049 22479 ft 387 kts 331°
2026-04-29 20:36 47.68477 -122.53098 21974 ft 385 kts 330°
2026-04-29 20:36 47.70738 -122.55118 21474 ft 383 kts 330°
2026-04-29 20:36 47.73034 -122.57172 20964 ft 378 kts 331°
2026-04-29 20:36 47.75252 -122.59157 20463 ft 377 kts 331°
2026-04-29 20:37 47.77495 -122.61165 19968 ft 375 kts 330°
2026-04-29 20:37 47.79722 -122.63163 19473 ft 374 kts 330°
2026-04-29 20:37 47.81944 -122.65158 18990 ft 372 kts 330°
2026-04-29 20:37 47.84152 -122.67142 18478 ft 370 kts 330°
2026-04-29 20:38 47.86352 -122.69121 17933 ft 369 kts 330°
2026-04-29 20:38 47.88562 -122.71110 17222 ft 368 kts 330°
2026-04-29 20:38 47.90734 -122.73071 16725 ft 365 kts 330°
2026-04-29 20:38 47.92903 -122.75027 16261 ft 364 kts 330°
2026-04-29 20:39 47.95073 -122.76984 15791 ft 364 kts 330°
2026-04-29 20:39 47.97232 -122.78935 15318 ft 363 kts 330°
2026-04-29 20:39 47.99386 -122.80886 14838 ft 361 kts 330°
2026-04-29 20:39 48.01531 -122.82831 14330 ft 360 kts 330°
2026-04-29 20:40 48.03666 -122.84767 13836 ft 358 kts 330°
2026-04-29 20:40 48.05794 -122.86698 13361 ft 359 kts 330°
2026-04-29 20:40 48.07920 -122.88629 12896 ft 357 kts 330°
2026-04-29 20:40 48.10051 -122.90569 12438 ft 359 kts 329°
2026-04-29 20:41 48.12178 -122.92503 11969 ft 358 kts 329°
2026-04-29 20:41 48.14306 -122.94438 11516 ft 357 kts 329°
2026-04-29 20:41 48.16413 -122.96361 11048 ft 348 kts 329°
2026-04-29 20:41 48.18418 -122.98194 10626 ft 328 kts 329°
2026-04-29 20:42 48.20320 -122.99932 10219 ft 312 kts 329°
2026-04-29 20:42 48.22131 -123.01587 9817 ft 300 kts 329°
2026-04-29 20:42 48.23890 -123.03197 9435 ft 293 kts 329°
2026-04-29 20:42 48.25628 -123.04789 9057 ft 292 kts 329°
2026-04-29 20:43 48.27357 -123.06374 8670 ft 290 kts 329°
2026-04-29 20:43 48.29077 -123.07953 8294 ft 290 kts 329°
2026-04-29 20:43 48.30793 -123.09529 7925 ft 289 kts 328°
2026-04-29 20:43 48.32504 -123.11102 7550 ft 288 kts 328°
2026-04-29 20:44 48.34205 -123.12665 7175 ft 286 kts 328°
2026-04-29 20:44 48.35897 -123.14223 6801 ft 285 kts 328°
2026-04-29 20:44 48.37627 -123.15626 6374 ft 281 kts 340°
2026-04-29 20:44 48.39519 -123.15973 6028 ft 267 kts 359°
2026-04-29 20:45 48.41339 -123.16046 5720 ft 257 kts 359°
2026-04-29 20:45 48.43091 -123.16147 5396 ft 250 kts 358°
2026-04-29 20:45 48.44810 -123.16252 5066 ft 243 kts 358°
2026-04-29 20:45 48.46484 -123.16346 4748 ft 238 kts 358°
2026-04-29 20:46 48.48120 -123.16436 4434 ft 233 kts 359°
2026-04-29 20:46 48.49721 -123.16526 4135 ft 228 kts 358°
2026-04-29 20:46 48.51290 -123.16608 3837 ft 223 kts 360°
2026-04-29 20:46 48.52817 -123.16440 3553 ft 217 kts
2026-04-29 20:47 48.54314 -123.16300 3265 ft 211 kts
2026-04-29 20:47 48.55745 -123.16172 2998 ft 199 kts
2026-04-29 20:47 48.57068 -123.16033 2994 ft 185 kts
2026-04-29 20:47 48.57914 -123.15950 2992 ft 183 kts
2026-04-29 20:48 48.59479 -123.16744 2556 ft 186 kts 323°
2026-04-29 20:48 48.60257 -123.18337 2252 ft 186 kts 292°
2026-04-29 20:48 48.60592 -123.20088 2303 ft 164 kts 288°
2026-04-29 20:48 48.60904 -123.21663 2285 ft 151 kts 289°
2026-04-29 20:49 48.61204 -123.23183 2297 ft 151 kts 289°
2026-04-29 20:49 48.61499 -123.24710 2227 ft 153 kts 288°
2026-04-29 20:49 48.61797 -123.26253 2132 ft 155 kts 289°
2026-04-29 20:49 48.62088 -123.27774 1908 ft 144 kts 289°
2026-04-29 20:50 48.62355 -123.29172 1714 ft 134 kts 289°
2026-04-29 20:50 48.62609 -123.30499 1541 ft 130 kts 288°
2026-04-29 20:50 48.62830 -123.31799 1362 ft 125 kts 287°
2026-04-29 20:50 48.63040 -123.33062 1224 ft 124 kts 287°
2026-04-29 20:51 48.63190 -123.33913 1150 ft 124 kts 288°
2026-04-29 20:51 48.63448 -123.35146 1050 ft 122 kts 290°
2026-04-29 20:51 48.63779 -123.36790 866 ft 126 kts 289°
2026-04-29 20:51 48.63958 -123.37654 747 ft 128 kts 289°
2026-04-29 20:52 48.64219 -123.38919 555 ft 128 kts 288°
2026-04-29 20:52 48.64470 -123.40223 320 ft 129 kts 285°
2026-04-29 20:52 48.64718 -123.41507 74 ft 124 kts 286°
2026-04-29 20:52 48.64936 -123.42643 52 ft 98 kts 286°
2026-04-29 20:53 48.65061 -123.43287 56 ft 28 kts 286°
2026-04-29 20:53 48.65060 -123.43384 53 ft 5 kts 159°
2026-04-29 20:53 48.65014 -123.43343 54 ft 10 kts 151°
2026-04-29 20:53 48.64950 -123.43290 53 ft 10 kts 143°
2026-04-29 20:54 48.64901 -123.43082 55 ft 14 kts 105°
2026-04-29 20:54 48.64870 -123.42918 56 ft 19 kts 106°
2026-04-29 20:54 48.64827 -123.42698 52 ft 25 kts 106°
2026-04-29 20:55 48.64779 -123.42443 51 ft 26 kts 106°
2026-04-29 20:55 48.64729 -123.42182 56 ft 25 kts 106°
2026-04-29 20:55 48.64683 -123.41938 55 ft 19 kts 106°
2026-04-29 20:55 48.64636 -123.41878 55 ft 7 kts 212°
2026-04-29 20:56 48.64621 -123.41937 57 ft 5 kts 270°
2026-04-29 20:56 48.64611 -123.41940 55 ft 2 kts 126°
2026-04-29 20:56 48.64610 -123.41934 58 ft 0 kts 102°